Juneau, AK

6:17 PM AKST on February 13, 2016 (GMT -0900)
Juneau International | | Change Station
CLOSE
Current Station
Airport
Location: Juneau,
Elevation: 23 ft
Nearby Weather Stations

Elev 23 ft 58.35 °N, 134.58 °W | Updated 24 minutes ago

Overcast
Overcast
39 °F
Feels Like 36 °F
N
5
Wind Variable Wind from East

Today
High -- | Low -- °F
--% Chance of Precip.
Yesterday
High -- | Low -- °F
Precip. -- in
Pressure 29.61 in
Visibility 10.0 miles
Clouds Mostly Cloudy 6000 ft
Overcast 23000 ft
Windchill 36 °F
Dew Point 35 °F
Humidity 86%
Rainfall 0.02 in
Snow Depth Not available.
7:36 AM 4:49 PM
Waxing Crescent, 37% visible
METAR PAJN 140253Z 09004KT 10SM BKN060 OVC230 04/02 A2961 RMK AO2 SLP026 T00390017 56009
Pressure 29.61 in
Visibility 10.0 miles
Clouds Mostly Cloudy 6000 ft
Overcast 23000 ft
Windchill 36 °F
Dew Point 35 °F
Humidity 86%
Rainfall 0.02 in
Snow Depth Not available.
7:36 AM 4:49 PM
Waxing Crescent, 37% visible
METAR PAJN 140253Z 09004KT 10SM BKN060 OVC230 04/02 A2961 RMK AO2 SLP026 T00390017 56009

10-Day Weather Forecast

Almanac

Astronomy

Feb. 13, 2016 Rise Set
Actual Time
Civil Twilight
Nautical Twilight
Astronomical Twilight
Moon
Length of Visible Light
Length of Day
Tomorrow will be .
, % of the Moon is Illuminated

Today's Extremes

State Highs State Lows

Community

WunderPhotos

Upload Photos

1,892,733 photos uploaded!

WunderBlog® & News

Nearby

Air Quality

  Air Quality AQ Index Pollutant
Not available.

Snow Depth

Station Depth Elevation

Earthquake Activity

City Distance Mag. Time & Date
Minimum magnitude displayed is 2.5.

Coastal Water Temperatures

Place Temperature

Stations

Nearby Weather Stations

Station Location Temp. Windchill Dew Point Humidity Wind Precip. Elev Updated Type
                   

Watches & Warnings

There are currently no watches in effect.